Voltar ao catálogo

GEESAT 2-05

AtivoNavegaçãoLEO
NORAD 58909·PAYLOAD·🇨🇳 China

Lançado Feb 2, 2024 de Xichang Satellite Launch Center

Loading…

Próximas Passagens (próximas 24 horas)

TLE

AtualizadoSource: Space-Track

Época: Sep 14, 2026, 14:52 UTC

1 58909U 24023E   26257.61974771  .00000917  00000-0  13776-3 0  9990
2 58909  50.0053 300.1397 0010695  44.8291 315.3510 14.83459409142190

Acompanhe GEESAT 2-05 em tempo real com AllMySat

Download on the App Store